Victoria, British Columbia

1:38 AM PDT on September 25, 2017 (GMT -0700)
Victoria International

Weather History for CYYJ - December, 2012

Change the Weather History Date:

Tuesday, December 18, 2012

  Actual Average Record
Temperature  
Mean Temperature 36 °F -  
Max Temperature 41 °F 44 °F 51 °F (2004)
Min Temperature 32 °F 33 °F 23 °F (2005)
Degree Days  
Heating Degree Days 28    
Moisture  
Dew Point 31 °F    
Average Humidity 80    
Maximum Humidity 93    
Minimum Humidity 66    
Precipitation  
Precipitation 0.02 in 0.19 in - ()
Sea Level Pressure  
Sea Level Pressure 29.89 in    
Wind  
Wind Speed 6 mph ()    
Max Wind Speed 18 mph    
Max Gust Speed 21 mph    
Visibility 13.8 miles    
Events Rain , Snow    
Averages and records for this station are not official NWS values.
T = Trace of Precipitation, MM = Missing Value Source: Averaged Metar Reports

Daily Weather History Graph

Daily Weather History Graph

Search for Another Location

Airport or City:

Trip Planner

Search our weather history database for the weather conditions in past years. The results will help you decide how hot, cold, wet, or windy it might be!

Date:

Astronomy

Dec. 18, 2012 Rise Set
Actual Time 8:02 AM PST 4:19 PM PST
Civil Twilight 7:25 AM PST 4:56 PM PST
Nautical Twilight 6:44 AM PST 5:36 PM PST
Astronomical Twilight 6:06 AM PST 6:14 PM PST
Moon 11:17 AM PST (12/18) 11:21 PM PST (12/18)
Length of Visible Light 9h 31m
Length of Day
8h 16m
Waxing Crescent, 36% of the Moon is Illuminated
Dec 18
Waxing Crescent
Dec 19
First Quarter
Dec 28
Full
Jan 4
Last Quarter
Jan 11
New

Hourly Weather History & Observations

Time (PST) Temp. Windchill Dew Point Humidity Pressure Visibility Wind Dir Wind Speed Gust Speed Precip Events Conditions
12:00 AM 35.6 °F 32.8 °F 30.2 °F 81% 29.84 in 30.0 mi East 3.5 mph - N/A   Mostly Cloudy
1:00 AM 35.6 °F 28.6 °F 30.2 °F 81% 29.84 in 15.0 mi South 9.2 mph - N/A   Overcast
1:06 AM 35.6 °F 30.7 °F - N/A% - 12.0 mi South 5.8 mph - N/A Rain , Snow Light Rain
1:33 AM 35.6 °F 32.8 °F - N/A% - 5.0 mi East 3.5 mph - N/A Rain , Snow Light Rain
2:00 AM 35.6 °F - 32.0 °F 87% 29.85 in 3.0 mi South 2.3 mph - N/A Rain , Snow Light Rain
2:21 AM 35.6 °F 31.7 °F - N/A% - 1.2 mi SSE 4.6 mph - N/A Rain , Snow Light Rain
2:34 AM 35.6 °F 31.7 °F - N/A% - 5.0 mi SSE 4.6 mph - N/A   Mostly Cloudy
3:00 AM 33.8 °F 27.7 °F 32.0 °F 93% 29.85 in 5.0 mi SSE 6.9 mph - N/A   Mostly Cloudy
4:00 AM 35 °F - 33 °F 87% 29.85 in 5 mi South 6.9 mph - - Snow Light Snow
4:00 AM 35.6 °F 29.2 °F 32.0 °F 87% 29.85 in 5.0 mi South 8.1 mph - N/A Rain , Snow Light Rain
5:00 AM 35.6 °F 30.7 °F 32.0 °F 87% 29.84 in 5.0 mi SSE 5.8 mph - N/A   Mostly Cloudy
6:00 AM 35.6 °F 29.9 °F 32.0 °F 87% 29.85 in 5.0 mi SE 6.9 mph - N/A   Overcast
7:00 AM 35.6 °F 30.7 °F 32.0 °F 87% 29.86 in 8.0 mi SE 5.8 mph - N/A   Mostly Cloudy
8:00 AM 33.8 °F - 32.0 °F 93% 29.86 in 15.0 mi SSE 2.3 mph - N/A   Mostly Cloudy
9:00 AM 37.4 °F 29.8 °F 30.2 °F 75% 29.87 in 15.0 mi SSW 11.5 mph - N/A   Mostly Cloudy
10:00 AM 37 °F - 31 °F 72% 29.88 in 19 mi SW 11.5 mph - -   Partly Cloudy
10:00 AM 37.4 °F 29.8 °F 32.0 °F 81% 29.88 in 20.0 mi SW 11.5 mph - N/A   Mostly Cloudy
11:00 AM 37.4 °F 32.8 °F 32.0 °F 81% 29.90 in 20.0 mi SSE 5.8 mph - N/A   Partly Cloudy
12:00 PM 41.0 °F 35.2 °F 32.0 °F 70% 29.91 in 20.0 mi SSW 9.2 mph - N/A   Partly Cloudy
1:00 PM 41.0 °F 35.2 °F 32.0 °F 70% 29.91 in 20.0 mi SW 9.2 mph - N/A   Partly Cloudy
2:00 PM 41.0 °F 35.2 °F 32.0 °F 70% 29.91 in 20.0 mi SSW 9.2 mph - N/A   Partly Cloudy
3:00 PM 39.2 °F 34.2 °F 30.2 °F 70% 29.92 in 20.0 mi South 6.9 mph - N/A   Scattered Clouds
4:00 PM 38 °F - 31 °F 66% 29.92 in 19 mi South 3.5 mph - -   Scattered Clouds
4:00 PM 37.4 °F - 30.2 °F 75% 29.92 in 20.0 mi Calm Calm - N/A   Mostly Cloudy
5:00 PM 37.4 °F 33.8 °F 30.2 °F 75% 29.93 in 20.0 mi South 4.6 mph - N/A   Mostly Cloudy
5:31 PM 35.6 °F - - N/A% - 20.0 mi Calm Calm - N/A   Scattered Clouds
6:00 PM 35.6 °F 28.6 °F 30.2 °F 81% 29.93 in 20.0 mi SW 9.2 mph - N/A   Partly Cloudy
7:00 PM 32.0 °F - 28.4 °F 87% 29.93 in 20.0 mi Calm Calm - N/A   Scattered Clouds
8:00 PM 35.6 °F 30.7 °F 30.2 °F 81% 29.93 in 20.0 mi SSE 5.8 mph - N/A   Mostly Cloudy
9:00 PM 37.4 °F 30.3 °F 32.0 °F 81% 29.91 in 15.0 mi SSE 10.4 mph - N/A   Mostly Cloudy
10:00 PM 38 °F - 33 °F 77% 29.91 in 15 mi SE 16.1 mph - -   Mostly Cloudy
10:00 PM 37.4 °F 27.5 °F 33.8 °F 87% 29.91 in 15.0 mi SSE 18.4 mph - N/A   Mostly Cloudy
11:00 PM 37.4 °F 29.8 °F 32.0 °F 81% 29.88 in 15.0 mi SE 11.5 mph 20.7 mph N/A   Mostly Cloudy